Theta_e
302 302 302 302 302 301 301 301 301 301 300 300 300 300 300 300 299 299 299 299 298 298 298 298 298 298 297 297 297 297 297 297 297 296 295 294 294 293 293 293 293 293 293 293 293 292 291 290 291 291 290 289 289 289 289 289 289 289 289 289 289 289 289 288 288 288 289 290 290 290 290 290 290 290 290 291 291 291 289 289 288 289 289 290 290
302 302 302 302 302 302 301 301 301 301 301 300 300 300 300 300 300 299 299 299 299 298 298 298 298 297 297 297 297 297 297 297 297 296 295 295 294 294 294 293 293 293 292 292 293 293 292 291 291 292 291 289 289 289 289 289 289 289 289 289 289 289 289 288 287 287 288 289 290 290 290 290 290 290 291 291 291 291 291 290 289 289 289 289 289
302 302 302 302 302 302 302 302 301 301 301 301 300 300 300 300 300 299 299 298 298 298 298 298 298 297 297 297 297 297 297 297 296 296 295 295 295 294 294 293 293 293 292 292 293 292 292 291 291 292 291 290 289 290 289 289 288 288 288 288 289 289 289 288 288 287 287 288 290 290 290 290 290 291 291 291 291 291 291 291 291 290 290 290 289
302 302 301 301 301 301 302 302 302 302 301 300 300 299 299 299 299 299 298 298 298 298 298 298 298 297 297 297 297 297 297 297 296 296 295 295 295 294 294 293 293 293 292 292 292 292 291 291 291 292 291 290 290 290 290 289 289 288 288 288 288 288 289 288 288 288 287 287 289 290 290 289 290 290 290 290 290 290 290 291 291 291 291 290 290
302 301 301 301 301 301 301 301 301 301 301 300 299 299 299 299 299 299 298 298 298 298 298 298 298 297 297 298 297 297 297 297 297 296 296 295 295 295 294 294 293 293 292 292 292 292 291 291 291 291 290 289 289 290 290 289 289 288 288 288 288 288 288 288 288 288 287 287 288 289 289 289 289 290 290 289 289 289 289 290 290 290 290 290 290
301 301 301 301 300 300 300 301 301 300 300 300 299 299 299 299 299 299 298 298 298 298 298 298 298 298 298 298 297 297 297 297 296 296 296 296 295 295 294 294 294 293 293 292 292 291 291 291 291 291 290 289 289 289 289 289 289 288 288 288 288 288 288 288 288 287 287 287 287 288 288 289 289 289 289 289 289 289 289 289 289 289 289 289 290
301 301 301 301 300 301 300 300 300 300 300 299 299 299 299 299 299 299 299 298 298 299 299 298 298 298 298 298 298 298 298 297 297 296 296 296 296 295 294 294 294 294 293 292 292 292 291 291 291 291 290 289 289 289 289 289 288 288 288 288 288 288 287 287 287 287 286 286 286 286 287 288 288 288 289 288 288 288 288 288 288 288 288 289 289
301 301 301 301 301 301 301 300 300 300 300 299 299 299 299 299 299 299 299 298 298 299 299 299 299 298 298 298 298 298 298 298 297 297 297 296 296 295 295 294 294 294 293 293 292 292 292 292 291 291 291 290 290 290 289 289 288 288 288 288 288 287 287 287 287 286 286 286 286 286 286 287 287 287 287 287 287 287 287 287 287 287 288 288 288
301 301 301 301 301 301 301 300 300 300 299 299 299 299 299 299 299 299 299 299 299 299 298 298 298 299 299 299 299 298 298 298 298 297 297 296 296 295 295 294 294 294 293 293 293 292 292 292 292 291 291 291 291 290 290 289 288 288 288 288 288 287 287 287 286 286 286 285 285 285 285 285 286 286 286 286 286 287 287 287 287 287 288 287 287
301 301 300 300 301 300 300 300 300 300 299 299 299 299 299 299 299 299 299 299 299 299 298 298 299 299 299 299 299 299 299 300 299 298 297 296 295 295 294 294 294 293 293 293 293 292 292 292 292 292 291 291 291 290 290 289 289 288 288 288 288 287 287 287 286 286 286 285 285 285 285 285 286 286 286 286 287 287 287 286 286 287 287 286 287
301 301 300 301 300 300 300 300 300 300 300 299 299 299 299 299 299 299 299 299 300 299 299 299 299 299 299 300 300 300 300 301 300 299 298 296 295 294 294 294 294 293 293 293 293 292 292 292 292 292 291 291 291 291 290 290 289 289 289 288 288 288 287 287 287 286 286 286 286 286 285 285 286 286 286 286 286 286 286 286 286 286 286 285 286
301 301 301 300 300 300 300 300 300 300 300 299 299 299 299 299 299 299 299 300 300 300 299 299 299 299 299 299 300 301 301 301 300 299 298 297 295 294 294 294 293 293 293 293 293 292 292 292 292 292 291 291 291 291 291 290 290 289 289 289 288 288 288 288 287 287 287 286 286 286 286 286 286 286 287 287 286 286 286 286 286 286 286 286 285
300 300 300 300 300 300 300 299 299 299 300 300 299 299 298 298 298 299 299 300 299 299 300 299 299 299 298 299 300 301 302 302 301 300 299 297 296 294 294 293 293 293 293 292 292 292 292 291 291 291 292 291 291 291 291 290 290 289 289 289 288 288 288 288 288 288 288 287 287 287 287 287 287 287 287 287 287 287 286 286 286 286 286 286 286
299 299 300 300 300 300 299 299 299 299 299 299 299 298 298 298 298 299 299 299 299 299 300 300 299 299 299 299 300 301 301 302 301 300 299 298 296 295 294 293 292 292 292 292 292 292 292 291 291 291 292 291 291 291 291 290 290 289 289 288 288 288 288 288 288 288 288 288 288 287 287 287 287 288 288 288 287 287 287 287 287 286 286 286 287
299 299 299 299 299 299 299 299 299 299 299 299 298 298 298 298 298 298 299 299 299 299 299 299 300 300 299 299 299 300 301 302 301 301 300 298 297 295 294 293 292 292 292 292 292 292 292 291 291 291 291 291 291 291 291 290 290 289 289 288 288 288 288 288 289 289 289 289 288 288 288 288 288 288 288 288 288 288 288 287 287 287 287 287 287
298 298 298 299 299 299 299 299 299 299 298 297 297 297 297 297 298 298 298 299 299 299 299 299 299 300 300 299 298 299 301 302 301 301 300 299 297 295 294 293 292 292 293 293 292 292 292 291 291 291 291 291 291 291 290 290 289 289 288 288 288 288 288 289 289 289 289 289 289 289 289 289 289 289 289 289 288 288 288 287 287 287 287 286 286
298 298 299 299 299 299 298 298 298 298 298 297 296 297 297 297 298 298 298 298 299 299 299 299 299 299 299 299 298 298 300 301 301 300 300 299 297 295 294 293 292 292 293 293 293 292 292 291 291 291 291 291 291 291 290 290 289 289 289 288 288 288 288 289 289 289 289 289 288 289 289 289 289 289 289 289 289 289 288 288 287 287 287 287 287
299 299 299 300 300 299 298 298 298 298 297 297 296 297 297 298 298 298 297 297 298 298 298 298 298 298 298 298 298 297 299 300 300 300 300 299 297 295 294 293 292 292 292 293 293 292 292 292 291 291 291 291 291 290 290 290 289 289 289 288 288 288 288 289 289 289 289 288 288 289 288 289 289 288 289 289 288 289 288 288 288 288 287 287 287
299 299 300 300 299 298 298 297 297 297 297 297 297 297 297 297 298 297 297 297 297 297 297 297 296 297 297 297 297 297 297 299 300 299 300 299 297 295 294 292 292 292 292 292 293 293 292 292 291 291 291 291 291 290 290 290 289 289 289 289 288 288 289 289 289 289 289 289 289 289 288 289 289 288 288 288 288 288 288 289 289 289 288 288 288
300 300 300 299 299 298 297 297 297 297 297 297 297 297 297 297 297 297 296 296 296 296 296 296 295 296 296 296 297 297 297 298 299 299 299 299 298 296 294 292 292 292 292 291 292 292 293 292 291 291 291 291 291 290 290 290 289 289 289 289 288 289 289 289 289 289 289 289 289 289 289 289 289 288 288 288 288 288 288 288 289 289 289 289 288
300 299 299 298 298 298 297 297 297 297 297 297 297 296 296 296 296 296 296 295 295 295 295 295 294 295 295 295 296 297 297 298 299 299 299 299 298 296 294 294 294 292 292 291 291 292 292 292 291 291 290 291 291 290 290 290 289 289 289 289 289 289 289 289 289 289 289 289 289 289 288 288 288 288 288 288 288 288 288 288 288 288 288 289 289
299 299 298 298 298 298 297 297 296 296 296 296 296 296 296 296 295 295 295 294 294 293 293 293 293 293 294 294 295 296 298 298 298 299 299 299 298 297 295 295 295 292 291 291 291 292 293 292 292 291 290 290 290 290 290 290 289 289 289 289 289 289 289 289 289 289 289 289 288 288 288 288 288 287 288 287 287 288 288 288 288 288 288 288 288
298 298 297 298 298 298 297 297 296 296 296 296 295 295 295 295 294 294 294 293 293 292 292 292 292 291 292 293 294 295 297 297 298 299 299 299 299 298 296 295 295 292 291 291 292 292 293 292 292 291 291 290 290 290 290 290 289 289 289 289 289 289 289 289 289 289 289 288 288 288 288 288 287 287 287 288 288 288 288 288 288 288 288 288 288
297 297 296 297 297 297 297 296 296 296 295 295 294 294 294 294 293 293 293 293 292 291 291 291 291 290 291 292 293 294 295 296 298 299 299 298 299 298 296 295 294 293 291 291 292 292 292 292 291 291 290 290 290 290 289 289 289 289 289 289 289 289 289 289 289 289 289 288 288 288 288 288 288 288 288 288 288 288 288 288 288 288 288 288 288
296 296 296 296 296 297 296 296 296 295 295 294 294 293 293 293 292 292 292 292 291 290 290 290 290 290 291 291 292 294 294 294 296 298 298 298 298 298 296 295 294 293 292 292 292 292 292 292 291 290 290 290 289 289 289 289 289 289 289 289 289 288 288 288 288 288 288 288 288 288 288 288 288 289 289 289 289 289 289 289 289 288 288 288 287
295 295 295 295 296 296 296 295 295 295 295 294 293 293 293 292 292 292 292 291 291 290 290 290 290 290 291 291 292 293 293 292 293 295 296 297 298 298 296 294 294 294 292 292 292 291 291 291 290 290 289 289 289 289 289 289 289 289 289 289 288 288 288 288 288 288 288 288 288 288 288 288 289 289 288 288 288 288 288 288 288 288 287 287 286
295 294 294 295 295 295 295 295 295 295 294 294 293 293 292 292 292 291 291 291 291 290 290 290 290 290 291 291 292 292 292 292 292 293 295 296 297 297 295 294 294 293 292 292 291 291 290 290 290 289 289 289 289 289 288 289 289 288 289 288 288 288 288 288 288 287 288 288 288 288 288 288 288 288 287 287 287 287 287 286 286 286 286 285 284
294 294 294 294 294 294 294 294 294 294 294 294 293 292 292 292 291 291 292 292 292 292 291 291 291 291 291 292 292 291 291 291 292 293 295 295 296 297 295 294 294 293 292 292 291 290 290 289 289 289 288 288 288 288 288 288 288 288 288 288 288 288 288 287 287 287 287 287 287 287 287 287 287 286 286 285 285 285 284 284 284 284 283 282 281
294 294 294 294 293 294 294 294 294 294 293 293 293 293 293 292 292 292 293 293 293 294 293 293 293 293 293 293 293 292 292 293 294 295 295 295 296 296 296 295 294 294 293 292 291 290 289 288 288 287 287 287 286 286 287 287 286 287 287 287 287 287 287 287 287 287 287 287 286 286 286 286 285 284 284 283 283 282 282 282 282 281 281 279 279
294 293 293 293 293 293 293 293 294 294 293 293 293 292 293 293 293 293 293 293 294 294 294 294 294 294 294 294 294 293 294 295 295 294 294 295 295 295 295 295 294 293 292 291 289 289 288 287 287 287 286 286 286 286 286 286 286 286 286 286 287 287 286 286 286 286 286 286 286 285 285 284 283 282 281 281 280 280 280 279 279 278 278 277 277
294 294 294 293 293 293 293 293 293 293 293 293 292 292 292 292 293 293 293 294 294 293 293 293 294 294 294 294 294 294 294 294 294 294 293 294 294 294 294 293 292 291 291 290 288 288 287 287 287 287 287 287 287 286 286 286 286 287 287 286 286 286 286 286 286 286 285 285 284 284 283 282 280 279 279 278 278 277 277 276 276 276 275 275 274
293 294 294 294 294 294 293 293 293 293 293 293 292 292 292 292 292 293 293 294 294 294 293 293 293 293 293 293 293 293 293 293 293 293 293 292 292 292 292 292 291 290 290 289 288 288 288 288 288 287 287 287 287 287 287 287 287 287 286 286 286 286 286 286 285 285 284 283 282 281 280 279 278 277 277 276 276 275 274 274 274 273 273 273 272
294 294 294 294 294 294 293 293 293 293 293 293 292 292 291 291 291 292 293 294 293 294 294 294 294 294 293 293 293 293 293 294 293 293 292 292 291 292 292 291 290 290 289 289 288 288 288 288 288 288 287 287 287 287 287 287 287 286 286 286 286 285 285 284 284 283 282 281 280 278 278 277 277 276 275 275 274 274 273 272 272 272 272 271 271
294 294 294 294 294 293 293 293 293 293 293 293 292 292 292 292 291 292 292 293 293 293 294 294 294 294 294 294 293 292 293 294 293 293 292 291 291 291 291 290 290 289 289 288 288 288 288 288 287 287 287 287 287 287 287 286 286 286 285 285 284 283 282 282 281 280 279 278 277 276 276 275 275 274 274 273 273 272 271 271 271 271 270 270 269
294 294 294 294 293 293 293 293 293 293 293 293 292 292 292 292 292 292 292 292 293 293 294 294 294 294 294 295 294 294 293 294 294 293 292 291 290 290 289 289 289 288 288 288 288 287 287 287 287 287 287 286 286 286 286 285 285 284 283 283 281 280 280 279 278 277 276 276 275 275 274 274 273 273 273 272 271 271 270 270 270 270 269 269 268
294 294 294 294 293 293 293 293 293 293 293 293 293 293 292 292 292 292 292 292 292 292 293 293 293 293 293 293 294 294 294 294 294 294 293 292 291 289 289 288 288 288 288 288 287 287 287 287 286 286 285 285 284 284 283 283 282 281 281 280 279 278 277 276 276 275 274 274 273 273 272 272 272 272 271 271 270 270 269 269 269 268 268 268 267
294 294 294 294 294 293 293 293 293 293 293 293 292 292 292 292 292 292 292 292 292 292 292 292 293 292 292 292 292 292 293 294 294 293 292 291 290 289 289 288 288 288 287 287 287 286 286 285 285 284 283 283 282 281 280 280 279 279 278 277 277 276 275 274 274 273 273 272 271 271 271 270 270 270 270 270 269 268 268 268 267 266 266 266 265
294 294 294 294 294 294 293 293 293 293 293 292 292 292 292 292 292 292 292 292 292 292 292 292 292 292 292 292 292 292 292 292 292 290 290 290 289 289 288 288 288 288 287 287 286 285 284 283 282 281 280 280 279 278 278 277 277 276 275 275 274 273 273 272 272 271 271 270 270 269 269 269 269 269 269 268 267 267 266 266 265 265 264 264 264
294 294 294 294 294 293 293 293 293 293 293 292 292 292 292 292 292 292 292 292 292 292 292 292 292 292 293 293 293 292 290 290 289 289 289 289 289 288 288 288 287 287 286 285 284 283 282 281 280 279 278 277 276 276 276 275 274 274 274 273 272 271 271 271 270 270 269 269 268 268 268 267 267 267 267 266 266 265 265 264 264 264 263 263 262
294 294 294 294 293 293 293 293 293 292 292 292 293 292 292 292 292 292 292 292 292 292 292 292 292 293 293 294 293 291 290 289 289 289 289 288 288 287 287 287 286 285 284 282 281 281 280 279 277 276 276 275 275 274 274 273 273 272 272 271 271 270 269 269 269 268 268 267 267 266 266 266 265 265 265 265 264 264 264 263 263 262 262 261 261
293 293 293 293 293 293 293 293 293 293 292 292 292 292 293 292 292 292 292 292 292 292 292 293 293 293 294 294 293 292 291 290 290 290 289 288 287 286 285 285 284 282 281 280 279 279 278 277 275 274 274 273 273 273 272 272 272 271 270 270 270 269 268 267 267 267 266 266 265 265 265 264 264 264 264 263 263 262 262 261 261 261 260 260 259
293 293 293 293 293 293 293 293 293 293 293 293 292 293 293 293 293 293 292 292 293 293 293 293 293 293 294 294 293 292 291 291 291 290 289 288 287 285 283 282 280 279 279 279 278 277 276 275 274 273 272 272 272 271 271 271 270 270 269 269 268 267 266 266 265 265 265 264 264 264 263 263 263 263 262 262 261 261 260 260 260 259 259 259 258
293 293 293 293 293 293 292 293 293 293 293 293 293 293 293 293 293 293 293 293 293 293 293 293 293 293 293 293 292 292 291 290 290 289 288 287 285 282 279 278 278 277 277 277 277 276 275 273 272 271 271 271 270 270 270 270 270 269 269 268 267 267 266 265 264 264 264 264 263 263 262 262 262 261 261 260 260 260 259 259 258 258 258 257 257
292 292 292 293 293 293 293 293 293 293 293 293 293 293 293 293 293 293 293 293 293 292 292 293 293 293 293 292 290 289 289 289 289 287 285 282 279 277 276 276 276 276 275 275 274 273 273 272 270 269 269 269 269 269 269 269 268 269 268 268 267 266 265 264 264 264 263 263 263 262 261 261 260 260 259 259 259 258 258 257 257 257 256 256 256
289 290 291 292 292 293 293 293 293 293 293 293 293 293 293 292 292 292 292 292 292 292 292 292 292 292 292 290 288 287 287 287 285 283 280 277 275 275 275 275 274 273 273 272 271 271 271 270 269 268 267 266 267 267 267 267 266 267 267 267 266 265 264 264 264 263 263 262 262 261 260 259 259 258 258 258 257 257 257 256 256 256 255 255 255
284 286 289 291 292 292 292 293 293 293 293 293 293 293 293 293 293 292 292 292 292 292 292 291 291 291 291 289 287 285 284 283 281 278 276 275 274 273 272 271 269 269 269 269 269 269 269 268 268 267 266 266 265 266 266 265 265 265 265 265 265 264 264 263 262 262 261 261 260 260 259 258 258 257 257 257 257 256 256 256 255 255 255 254 254
281 283 286 289 291 291 292 292 292 292 293 293 293 293 293 293 293 292 292 292 292 291 291 291 291 290 290 288 286 284 282 280 277 275 273 272 270 268 267 266 266 266 266 266 266 267 267 266 266 266 266 265 265 264 264 264 264 263 263 263 263 263 262 261 260 260 260 259 259 259 258 258 257 257 257 256 256 256 255 255 254 254 254 254 253
279 281 284 286 289 290 291 291 292 292 292 292 292 292 292 292 292 292 292 291 291 291 290 290 290 289 288 286 284 281 279 276 273 271 269 267 266 265 265 264 264 264 264 263 264 264 265 265 264 264 264 264 263 263 263 262 262 262 262 261 261 260 260 259 259 259 258 258 258 258 258 257 257 256 256 255 255 255 254 254 254 254 253 253 253
277 279 282 284 286 288 289 290 291 291 291 292 292 292 292 292 292 292 291 291 291 291 290 290 289 287 285 283 280 277 274 272 269 267 265 264 263 263 263 262 262 262 262 262 262 262 263 263 263 263 263 262 262 262 261 261 261 260 260 259 259 258 258 258 258 258 258 258 258 257 257 256 256 255 255 255 254 254 254 254 254 253 253 253 253
275 277 280 281 283 285 287 288 289 290 291 291 291 291 292 292 292 291 291 291 290 290 289 288 286 284 281 278 275 272 270 268 266 264 263 262 261 261 261 261 261 261 261 262 261 261 261 261 261 261 261 261 261 260 260 260 259 259 258 257 257 257 257 258 257 257 257 257 257 256 256 256 255 255 255 254 254 254 254 253 253 253 253 253 253
273 275 277 279 281 282 284 285 287 288 289 290 290 291 291 291 291 291 291 291 290 289 287 285 282 279 276 274 271 269 267 266 264 263 262 261 260 260 260 260 260 260 261 261 261 260 260 260 260 260 260 260 259 259 258 258 258 257 257 257 257 257 257 257 257 257 256 256 256 256 256 256 255 255 254 254 254 254 253 253 253 253 253 253 252
Wind_Speed
16 18 18 19 20 20 19 18 18 19 20 20 21 21 21 20 20 19 19 18 17 17 17 17 17 17 18 18 19 19 20 20 19 19 21 23 23 23 23 24 26 27 27 27 27 27 28 28 29 28 27 27 27 26 25 24 23 23 23 23 23 22 22 20 12 10 19 24 22 20 20 19 20 20 19 18 18 19 23 27 29 31 32 33 33
17 18 19 19 20 20 20 20 20 20 21 21 22 23 22 22 21 20 21 20 19 19 19 18 18 19 20 20 20 20 20 20 20 20 21 23 23 23 23 24 26 28 29 29 29 29 29 30 31 30 29 29 29 29 28 27 26 26 25 25 26 26 24 23 18 11 14 23 25 23 21 21 22 22 21 21 20 20 21 23 26 29 32 33 34
18 19 20 21 21 21 21 21 21 22 22 22 23 23 23 22 21 22 22 21 21 21 20 20 20 20 21 22 22 21 21 21 20 20 21 22 22 23 23 23 25 27 29 30 29 29 30 31 32 31 30 31 31 31 31 30 29 28 28 28 27 28 26 25 22 17 15 20 25 25 22 21 22 23 23 22 22 22 23 22 23 26 29 31 34
17 19 21 22 22 22 22 22 22 23 23 23 23 23 23 22 22 23 23 23 23 22 21 21 21 22 23 23 23 22 22 21 21 21 21 21 22 23 23 24 25 27 28 29 28 29 30 31 32 31 31 31 32 33 32 32 31 30 30 30 29 29 29 27 26 24 19 18 22 27 26 23 23 24 23 24 24 23 24 24 24 26 28 29 31
17 19 21 22 23 22 22 23 23 24 24 24 23 22 21 22 22 23 23 23 23 23 23 23 22 23 23 23 23 23 22 21 21 21 20 20 22 23 23 24 25 27 28 28 28 28 29 31 32 31 30 31 32 33 33 33 32 31 31 31 31 31 30 28 27 27 24 20 23 29 29 26 26 27 27 26 25 25 25 27 28 28 29 29 31
18 19 21 22 24 23 22 23 23 24 25 25 24 22 21 21 22 22 23 23 24 24 24 24 23 23 23 23 22 22 22 21 21 21 21 20 22 23 24 24 25 27 27 28 28 27 29 30 31 31 30 31 32 33 33 33 32 31 31 32 32 31 29 29 28 26 25 25 25 27 30 30 28 28 30 29 26 27 27 28 30 30 30 32 33
20 20 21 22 24 24 24 23 23 24 25 25 25 24 23 22 22 22 22 22 24 24 24 24 24 23 23 23 22 22 22 22 22 21 21 20 21 23 24 24 25 26 27 27 27 27 28 29 30 30 31 31 32 32 32 32 31 31 32 32 32 29 28 28 28 26 25 25 25 26 30 32 30 30 32 29 25 26 28 27 27 29 32 34 35
24 22 22 23 24 25 25 24 24 24 25 25 26 25 25 23 22 22 22 23 24 24 24 24 23 23 23 23 22 22 22 23 23 22 21 21 21 22 23 24 24 25 26 27 27 27 28 29 29 30 30 31 31 31 31 31 31 31 32 32 31 29 27 27 26 25 25 24 24 26 27 29 30 30 29 25 22 25 29 27 26 30 32 33 34
26 25 24 24 25 25 25 24 24 25 25 26 26 27 26 25 24 23 23 24 25 24 23 23 23 23 23 23 23 22 23 24 24 23 22 21 21 21 22 23 24 25 26 27 27 28 28 29 30 29 29 29 30 30 31 31 31 32 32 31 30 29 28 27 25 25 24 22 22 24 23 23 27 28 25 24 25 28 28 25 25 31 33 32 33
26 27 28 27 26 25 25 25 25 26 26 27 27 27 27 26 26 26 25 25 25 25 24 23 23 24 23 23 24 24 24 25 24 23 22 21 21 22 22 23 24 24 26 27 28 29 29 29 30 29 28 28 29 29 30 30 31 33 33 32 31 29 28 27 26 26 23 20 21 23 19 18 25 28 27 29 30 29 26 23 24 28 28 26 29
26 28 30 30 28 27 26 26 26 27 28 28 28 28 27 27 27 27 27 27 27 26 26 25 25 24 23 23 24 25 26 25 24 23 22 21 22 22 23 24 24 25 26 27 29 30 30 30 30 29 28 28 28 29 29 30 31 32 34 34 33 32 30 28 27 26 24 22 22 23 19 19 26 30 29 29 29 27 26 25 25 24 22 17 16
26 28 30 30 30 29 29 29 29 29 30 30 29 29 28 28 28 28 29 30 28 27 27 27 26 25 24 23 24 26 27 26 24 23 22 21 21 22 24 25 25 26 26 27 29 30 30 30 30 29 29 28 28 28 29 30 30 30 32 34 34 35 35 34 32 29 25 23 23 23 22 22 25 28 28 28 27 26 26 26 25 24 23 20 16
27 29 30 30 31 32 31 31 32 32 31 31 31 30 29 30 30 29 30 30 30 29 29 28 28 27 26 25 26 27 26 25 25 24 23 22 21 21 24 25 26 27 27 27 28 29 30 30 30 30 30 28 28 28 29 29 29 29 30 31 33 35 36 37 37 35 32 29 26 25 26 25 25 28 31 29 26 25 24 25 26 26 26 25 25
28 30 31 32 33 33 32 33 34 35 34 33 32 31 31 32 31 30 30 31 31 32 31 30 29 29 28 27 27 27 27 26 26 24 23 22 20 20 23 24 26 27 27 27 28 29 29 29 30 31 30 29 28 28 29 29 28 28 28 29 32 33 34 36 38 38 39 37 34 32 31 30 31 33 34 31 28 28 27 26 27 27 28 30 32
30 30 31 33 34 34 33 34 35 37 36 34 33 33 33 33 32 31 30 31 33 33 32 31 31 31 30 29 28 29 28 26 26 25 24 23 20 20 22 24 26 27 28 28 28 28 29 29 29 30 30 30 30 29 28 28 27 27 28 29 30 31 32 34 35 37 39 40 40 39 38 38 38 38 36 33 32 33 32 31 29 28 29 31 31
31 31 32 34 36 35 34 34 35 37 37 35 34 34 34 34 33 31 30 31 32 33 33 33 32 32 32 30 30 32 31 28 26 26 25 23 21 20 22 24 26 28 29 29 28 28 28 27 28 29 30 31 30 29 28 27 26 27 27 29 30 30 32 33 32 34 36 37 39 40 40 40 40 40 39 37 36 35 33 31 30 28 27 24 23
33 33 35 37 37 36 34 34 35 36 37 36 36 35 34 34 33 31 30 31 32 34 35 35 33 32 32 31 32 34 34 30 27 27 25 23 21 21 22 25 27 29 30 30 29 28 27 27 26 27 29 30 30 29 27 26 26 27 27 28 29 30 32 32 32 32 33 34 36 37 38 39 39 40 40 38 38 35 31 29 27 25 23 16 14
35 35 37 39 38 36 35 34 34 35 36 37 38 37 35 34 33 31 30 32 33 34 34 34 34 33 33 33 33 34 36 33 29 28 27 24 22 22 23 24 27 30 31 30 29 29 28 27 25 25 27 28 28 27 26 25 26 27 27 27 27 29 31 30 29 29 29 29 31 33 34 36 36 38 38 38 37 35 32 31 29 25 22 17 14
38 38 38 39 38 36 35 33 34 35 35 37 38 38 37 35 32 31 31 32 33 34 33 33 34 34 34 34 34 35 37 36 32 30 29 25 22 22 22 23 27 31 31 30 30 29 28 27 25 24 24 25 25 24 24 25 26 27 27 25 25 29 30 27 26 26 26 26 27 28 30 32 33 34 35 35 36 35 36 37 34 28 25 24 21
41 39 38 37 37 37 35 34 34 35 36 37 37 38 38 36 33 31 32 33 33 33 33 33 35 36 35 35 35 35 37 37 35 32 31 27 23 22 22 24 29 31 31 29 29 29 29 28 25 23 22 21 21 21 22 23 25 27 27 26 27 29 29 26 25 26 26 26 27 28 28 29 30 31 32 33 34 35 36 38 38 34 31 29 25
41 39 38 37 37 38 37 36 36 36 37 36 36 37 38 38 35 32 32 32 32 33 34 33 34 36 37 36 36 37 38 38 37 35 33 29 25 23 24 27 30 30 29 29 29 30 30 29 26 23 21 20 19 19 20 21 22 25 27 29 29 29 27 26 26 26 26 27 28 28 28 28 29 29 30 31 31 32 33 35 37 37 36 34 29
41 40 38 38 38 39 39 37 37 37 37 36 35 36 38 38 37 34 32 31 31 32 33 33 33 35 36 36 37 38 38 38 38 36 35 32 27 24 26 29 29 28 28 29 30 31 31 29 27 24 21 19 19 19 19 19 20 23 26 27 27 26 26 26 27 26 26 26 26 26 27 27 28 28 29 30 30 30 31 32 34 35 37 39 36
41 39 38 39 40 40 40 38 37 37 37 37 36 36 36 36 36 34 31 30 30 31 32 32 30 31 34 35 37 38 39 38 38 37 37 34 28 26 27 28 27 26 27 30 32 32 31 29 26 24 21 19 19 19 19 20 21 23 24 24 24 24 24 25 25 25 25 24 23 24 25 26 27 27 27 28 28 28 29 30 31 33 35 38 40
40 38 38 38 40 42 41 39 38 37 37 36 35 35 35 34 34 33 31 30 28 29 30 29 27 28 31 33 35 37 38 38 37 37 37 34 30 27 27 27 26 26 27 30 32 31 30 29 26 23 20 19 19 19 20 21 22 23 24 23 23 23 23 24 24 23 22 21 21 22 22 23 24 25 25 25 25 25 26 28 29 31 33 35 36
37 36 36 37 39 41 41 40 38 37 37 35 34 35 34 32 32 32 31 30 29 28 28 27 26 26 28 30 34 36 36 34 34 35 35 34 31 29 28 27 26 26 28 30 31 30 29 27 25 23 21 21 20 20 21 22 22 22 23 22 22 23 24 24 23 21 20 20 20 20 21 21 22 23 23 23 23 23 23 25 26 27 29 30 31
36 35 35 36 39 40 40 40 38 37 37 36 35 35 34 32 31 30 29 29 30 29 27 26 25 26 27 29 33 34 32 31 32 34 34 33 32 31 29 27 26 26 27 28 28 27 26 25 25 24 24 23 22 22 23 22 21 20 21 21 22 24 24 24 23 21 20 20 20 21 21 20 20 20 20 21 21 21 21 22 24 25 25 26 27
35 35 34 37 39 38 38 39 38 36 35 34 34 35 34 33 32 30 29 29 29 28 27 26 24 24 26 30 32 31 30 28 30 33 34 34 34 33 30 28 27 26 27 27 27 25 24 24 25 25 25 24 23 23 23 23 22 21 22 21 22 23 24 25 24 23 22 22 21 21 20 19 19 19 19 20 20 20 20 20 20 21 22 22 22
34 35 35 36 37 36 37 37 36 35 35 34 33 34 33 33 33 34 34 33 31 29 28 27 27 28 29 29 28 26 26 28 31 34 34 34 34 33 31 29 28 27 27 26 24 22 22 22 24 25 25 24 24 24 24 24 23 23 22 22 22 22 22 23 23 24 23 22 20 19 18 17 16 16 16 16 16 17 17 17 18 19 19 18 16
33 33 33 34 35 35 35 35 35 35 35 34 33 35 36 35 35 38 40 38 38 37 34 32 32 33 32 31 27 23 24 30 33 33 31 30 30 31 30 29 28 27 26 23 21 20 20 21 23 24 23 22 21 22 22 22 21 21 21 20 20 20 20 21 21 21 20 19 17 16 15 14 13 13 13 14 15 15 15 15 16 16 16 15 14
33 32 30 30 32 33 33 33 34 34 33 32 32 34 37 37 37 39 41 40 40 40 40 39 38 34 32 34 34 31 33 35 32 27 26 26 26 26 27 26 25 24 22 20 19 20 21 21 22 22 21 20 18 18 18 18 17 18 18 18 18 18 18 19 20 19 18 17 16 16 14 13 13 13 13 13 12 12 12 12 13 12 12 12 12
32 32 30 29 31 32 32 32 33 33 32 31 30 30 32 35 36 38 41 41 40 41 41 42 42 38 36 38 39 37 38 38 34 30 28 28 26 26 26 25 25 24 22 19 19 21 22 23 23 22 20 19 19 18 18 17 16 16 16 16 16 17 18 18 19 18 17 17 16 16 15 13 12 10 10 9 8 8 8 8 8 8 8 8 7
32 33 33 31 32 32 32 32 32 32 31 30 29 28 27 27 30 34 37 36 37 38 39 40 43 42 41 42 42 40 39 38 36 34 33 31 31 30 29 28 27 25 22 20 22 24 23 22 22 21 19 19 20 19 18 17 17 17 16 16 16 17 17 18 17 16 16 16 15 14 12 10 8 7 6 6 5 5 5 5 5 5 6 5 5
33 35 36 34 32 32 32 31 31 30 30 29 27 26 24 22 22 27 30 28 27 30 33 35 38 40 41 43 45 45 44 42 38 35 33 33 33 32 31 31 29 26 22 22 24 24 23 21 21 21 20 21 20 19 18 18 17 17 17 17 16 15 15 15 14 14 14 13 12 10 8 7 6 5 4 4 5 5 5 6 6 6 7 7 7
34 36 38 36 34 34 33 31 30 30 30 29 27 26 26 25 24 23 23 20 20 24 29 31 33 36 39 42 44 44 44 43 41 39 36 34 33 32 30 29 27 24 24 26 26 24 23 22 21 21 21 21 20 19 18 17 17 16 15 15 13 12 12 12 11 11 11 10 8 7 6 5 5 5 5 5 5 6 6 7 7 7 7 7 7
35 37 39 38 35 35 35 33 31 30 29 29 28 27 27 28 27 25 22 19 18 20 25 28 29 32 36 39 40 41 41 41 40 38 37 36 34 31 27 25 24 24 26 28 28 26 24 23 22 21 20 20 19 19 18 17 15 14 14 12 11 11 10 10 9 9 8 7 7 6 5 5 4 5 6 7 7 7 8 7 7 7 7 7 7
33 34 37 36 34 33 34 34 32 30 30 29 29 29 28 27 26 26 26 24 22 22 25 28 29 29 31 35 37 37 37 38 37 36 35 34 33 30 27 27 27 27 27 27 28 27 25 23 22 20 19 18 18 17 16 15 14 13 12 11 11 10 10 9 9 8 8 8 8 7 7 7 7 7 8 8 8 8 8 8 7 6 5 5 6
33 34 35 35 33 32 33 34 33 32 31 30 29 29 28 28 27 26 25 25 24 23 26 30 29 25 27 33 35 34 35 35 34 32 31 30 30 31 32 30 28 27 26 27 27 26 24 22 21 19 18 17 16 15 14 13 12 11 11 10 11 11 10 10 10 10 10 10 10 10 10 10 9 9 9 9 9 8 7 6 6 5 4 4 4
34 35 36 37 35 33 32 33 33 31 30 29 29 28 27 27 27 26 25 25 25 24 25 28 26 23 26 30 31 30 30 30 28 28 28 28 29 32 33 32 29 27 26 26 26 25 23 21 19 18 16 15 15 14 13 13 13 12 12 12 12 12 12 13 13 13 13 13 12 12 11 11 10 9 8 9 9 8 7 5 5 4 4 4 4
34 35 37 37 35 33 32 32 32 30 28 27 27 26 26 26 26 25 24 24 24 24 25 24 24 26 31 31 26 23 23 24 27 30 29 28 30 32 31 30 29 29 27 26 24 23 22 20 18 17 16 15 15 15 15 15 15 15 16 16 16 16 15 15 15 15 14 14 13 12 11 10 9 8 7 8 8 7 7 6 5 5 5 5 5
33 34 36 36 33 30 31 31 30 28 27 27 26 25 25 25 25 24 23 23 23 24 24 24 25 31 37 34 27 24 24 24 28 30 28 27 30 32 32 31 31 30 28 26 24 23 22 20 18 17 16 16 16 17 17 18 18 19 19 19 19 19 18 17 16 16 15 14 13 11 10 9 9 8 8 8 7 7 7 6 6 5 5 4 4
34 34 35 34 32 30 29 29 29 28 27 27 26 25 25 25 26 25 24 23 24 25 26 27 30 37 40 37 31 29 29 27 27 27 28 29 31 33 34 34 33 30 28 27 25 24 22 20 19 19 19 18 19 19 20 20 21 21 21 21 20 20 19 18 16 16 15 14 13 12 10 9 8 8 8 8 8 7 7 6 5 5 4 3 3
36 35 34 33 32 29 27 27 29 29 28 27 26 26 26 26 26 25 25 25 26 26 26 28 33 37 39 37 32 30 31 30 28 27 28 30 31 32 33 33 31 30 29 28 26 25 23 23 22 21 21 21 21 21 22 22 22 22 22 21 21 20 20 18 17 15 14 14 13 11 11 10 9 9 9 8 8 7 6 6 5 4 3 3 3
37 35 34 33 32 30 28 28 29 28 27 26 26 27 28 27 26 26 26 26 27 27 26 27 31 34 36 34 30 28 30 31 29 27 27 28 29 30 30 31 30 29 27 26 25 24 24 24 24 24 23 23 23 23 22 22 22 22 22 21 20 19 19 18 17 15 14 14 13 12 11 10 9 9 9 8 7 7 6 6 5 4 3 3 3
36 35 34 34 33 32 30 29 28 27 28 29 29 29 29 27 26 26 26 25 27 28 27 28 30 31 31 30 25 24 28 29 28 26 26 25 26 26 27 28 28 27 26 25 24 24 25 25 26 26 25 24 23 22 21 20 20 19 19 20 20 19 18 17 16 15 14 13 13 12 11 10 9 9 8 8 7 7 7 6 5 4 4 3 3
37 36 35 34 33 32 32 31 29 28 28 28 28 28 28 26 25 25 24 25 26 27 28 29 29 28 28 27 24 24 27 27 25 24 23 22 23 25 26 27 27 26 25 25 24 24 25 26 27 27 27 25 24 22 21 20 18 17 16 17 18 18 17 16 15 14 13 13 12 12 11 10 10 9 8 8 7 7 7 6 5 4 4 3 3
37 37 35 34 32 31 32 33 32 30 28 27 26 27 27 26 26 24 24 25 26 26 26 27 27 27 27 26 25 25 26 26 25 24 24 24 25 26 26 25 25 24 24 24 25 25 26 27 27 27 27 26 24 23 21 20 19 18 17 15 16 16 16 15 15 14 13 12 12 12 12 11 10 9 8 8 7 7 6 6 5 4 3 3 3
37 37 36 35 33 32 32 33 33 32 30 29 28 27 27 28 28 26 26 26 27 27 26 26 26 26 26 26 26 27 27 27 26 25 24 24 25 26 26 25 24 24 24 25 26 27 27 27 26 26 26 25 24 23 22 20 19 19 18 16 16 16 16 15 14 14 13 12 12 11 11 11 10 9 8 7 7 6 6 5 4 2 2 1 2
35 35 35 35 35 33 31 32 31 31 30 30 29 28 29 29 28 27 27 26 26 26 25 25 25 25 25 26 27 27 25 24 23 22 22 24 26 26 26 26 25 26 26 26 27 27 27 26 25 24 24 24 23 22 21 20 19 19 18 17 16 16 15 15 14 13 12 11 10 10 9 9 9 8 7 7 6 5 4 4 3 1 1 1 3
33 33 33 34 34 33 32 32 31 31 31 30 30 29 29 28 28 27 27 27 26 26 25 25 24 24 24 24 23 22 21 21 20 21 24 26 27 28 28 27 27 27 27 27 26 26 26 26 24 23 22 22 21 20 20 19 19 18 18 17 16 15 14 14 12 11 10 9 8 8 8 7 7 7 6 5 4 3 2 2 1 1 2 2 4
34 33 32 32 32 33 33 33 31 31 31 30 29 29 28 27 27 27 27 26 26 26 26 24 23 22 21 20 19 19 21 22 25 27 29 30 30 30 30 30 29 29 29 28 27 25 25 25 24 24 23 22 20 20 19 18 17 17 17 16 15 13 12 12 11 9 8 7 6 6 5 5 4 4 4 3 3 2 1 1 1 2 3 4 5
31 31 31 32 32 33 34 33 31 30 30 29 28 29 28 27 27 28 28 27 26 25 24 22 19 18 18 18 20 22 24 27 29 31 32 33 33 33 33 33 32 32 31 29 28 26 25 24 24 24 24 23 22 20 19 18 17 17 15 14 12 11 11 10 9 8 7 5 4 3 2 2 2 2 2 2 1 1 0 1 2 3 4 5 6
Wind_Direction
287 285 283 282 279 279 281 285 289 292 294 295 293 291 291 291 294 296 295 293 293 292 290 290 290 290 289 287 286 285 284 283 282 279 276 274 272 271 269 269 268 269 270 270 270 270 270 270 272 273 273 272 272 272 269 267 264 260 259 256 254 252 244 234 231 255 263 265 265 264 265 266 266 267 266 263 259 251 245 242 241 240 240 240 239
288 288 287 284 281 278 276 277 279 283 287 290 291 291 289 288 290 291 290 289 288 286 286 288 290 291 290 289 289 287 286 286 285 282 280 278 277 275 272 270 268 268 268 268 268 268 268 267 269 272 271 270 269 270 269 268 265 262 258 255 253 253 248 239 234 240 258 265 268 269 268 264 264 268 267 265 263 260 254 248 244 243 242 243 243
290 288 287 286 285 282 278 275 274 276 279 284 288 289 288 287 286 286 286 284 282 281 282 285 287 288 288 288 288 288 289 289 288 285 282 281 281 279 276 273 270 269 268 268 269 268 267 265 266 269 269 268 268 268 268 266 264 262 260 258 255 256 254 246 240 238 246 260 266 269 269 265 265 270 270 269 267 263 260 257 252 249 247 246 246
293 290 287 286 286 284 282 279 276 275 276 280 284 286 285 283 282 282 283 281 279 278 279 280 282 283 284 285 286 287 288 289 289 287 285 285 283 281 280 276 273 271 269 269 270 269 267 266 266 268 267 265 266 267 266 265 263 260 260 260 258 258 258 253 247 245 245 253 263 267 269 268 269 272 272 270 266 262 261 261 257 254 252 250 250
290 289 287 286 285 284 284 282 280 279 280 282 284 283 281 279 279 280 280 279 279 278 277 277 278 280 281 283 284 285 286 287 287 286 286 286 284 282 281 278 276 274 272 271 270 269 268 267 268 268 266 263 263 264 264 263 262 260 259 260 259 259 258 255 252 250 245 247 257 264 267 269 269 271 270 268 266 264 261 260 258 256 255 254 254
284 287 287 286 285 284 283 282 282 282 284 287 287 285 280 277 277 278 278 279 278 277 277 277 277 280 281 282 283 284 285 286 285 285 286 285 284 282 280 279 278 277 275 273 272 270 268 269 270 268 265 261 261 263 263 263 261 259 258 259 260 258 256 255 253 250 246 246 252 259 265 267 267 268 269 267 265 263 262 262 260 258 257 257 256
276 282 285 284 285 284 284 283 283 284 287 289 289 287 283 279 278 278 279 278 277 276 276 276 277 279 280 280 281 282 284 285 283 284 285 284 283 281 280 279 279 278 277 276 274 272 269 269 269 267 265 262 262 262 263 262 261 259 259 260 259 256 254 253 252 248 246 247 249 253 258 263 264 264 265 267 265 263 262 262 262 262 260 259 258
270 275 280 281 282 284 286 286 286 286 287 287 288 287 285 282 280 279 278 275 274 274 274 275 276 277 277 278 279 280 282 282 283 284 285 284 282 280 279 279 278 278 278 277 276 274 272 270 268 267 266 265 264 263 262 261 259 259 259 259 257 253 251 250 249 245 243 243 246 249 252 257 260 262 262 260 257 257 256 254 257 261 262 261 261
269 270 274 277 280 285 287 287 286 286 285 285 286 287 286 284 281 278 276 274 274 274 272 272 273 273 275 277 278 280 280 281 284 286 286 285 282 280 279 277 276 276 277 277 276 274 273 272 270 269 269 268 267 265 264 261 258 256 257 257 253 250 247 245 243 241 239 237 241 245 248 250 254 258 257 249 246 250 253 250 251 257 261 263 263
275 271 272 275 280 283 284 285 285 284 283 283 284 285 285 284 282 279 276 274 273 272 271 269 268 269 271 274 277 279 280 281 284 287 287 287 284 281 278 276 275 274 274 275 275 275 274 273 273 273 272 271 270 267 265 262 258 256 256 254 251 247 243 240 239 237 235 234 235 238 239 243 248 250 251 250 251 251 250 245 246 253 259 262 265
279 275 273 276 279 280 281 282 283 282 282 282 282 282 282 281 280 277 275 273 271 270 269 267 265 265 266 270 274 276 278 280 283 285 285 284 282 279 277 275 274 273 272 273 274 274 274 274 274 274 272 271 271 269 267 264 260 258 256 254 251 248 244 240 239 238 235 236 238 237 235 239 246 249 252 255 256 253 250 247 246 249 250 252 262
279 276 276 278 279 279 280 280 280 280 280 280 279 280 279 277 275 273 272 271 270 269 267 265 264 263 263 265 269 272 274 278 280 283 283 281 278 276 274 274 272 271 270 270 272 273 273 273 274 273 272 272 272 271 270 267 263 261 258 256 252 250 247 244 243 241 238 238 241 240 238 241 248 251 252 254 256 256 254 251 247 246 246 246 249
279 277 278 279 279 280 280 279 278 278 278 279 278 277 274 271 270 269 269 270 270 267 265 263 263 263 263 264 266 268 271 275 278 281 282 281 278 274 271 270 269 269 268 268 270 271 271 271 272 272 271 271 271 270 269 268 267 264 261 258 255 252 250 248 247 246 244 243 244 243 243 244 247 251 254 254 254 254 253 250 247 245 244 245 247
280 278 279 280 280 280 280 278 278 278 278 277 276 274 271 269 268 267 267 268 267 265 263 263 263 264 264 264 265 267 268 271 276 280 282 283 279 273 270 269 268 267 267 266 267 268 268 268 269 270 272 271 269 269 268 267 266 265 262 259 256 254 252 250 249 249 247 246 245 246 247 247 248 253 256 255 252 251 250 250 249 247 247 251 255
281 279 279 280 280 279 278 278 278 277 277 275 273 271 269 268 267 265 265 265 265 265 265 264 263 264 264 265 265 266 267 268 273 278 281 283 281 274 270 268 267 267 267 266 266 266 267 267 267 269 270 270 269 268 267 265 264 263 261 259 258 256 254 252 250 250 249 248 247 249 250 250 251 254 256 256 254 254 255 255 256 256 258 261 261
281 280 280 281 281 279 277 277 277 277 276 273 270 269 267 266 266 265 264 264 264 264 264 263 262 263 265 265 265 266 267 268 271 275 279 281 278 272 269 267 267 267 268 267 266 266 266 266 266 268 269 270 271 269 266 265 262 260 258 258 258 257 256 256 256 254 252 252 252 253 254 255 256 257 258 257 256 257 259 260 259 258 259 262 261
280 281 281 282 281 280 278 276 275 277 275 271 268 267 266 266 266 264 262 261 262 263 264 264 264 264 264 264 264 266 268 268 269 273 276 277 275 270 268 267 267 266 268 269 268 268 267 265 265 267 268 269 271 270 268 264 259 256 255 256 258 257 258 260 260 257 256 255 255 256 258 259 260 261 261 260 259 257 256 256 255 253 254 258 259
280 280 281 284 283 281 278 275 274 274 273 270 268 268 266 266 266 264 261 260 261 263 264 266 266 265 264 264 264 266 269 270 270 271 273 273 271 268 267 266 267 266 267 269 269 269 269 268 265 265 267 270 271 272 270 264 257 254 253 253 254 256 258 260 261 261 260 259 258 258 258 259 259 261 261 260 259 255 250 250 252 251 251 252 256
280 280 283 285 284 282 279 274 272 270 270 270 269 268 267 266 265 264 262 260 261 263 263 264 265 265 265 264 265 267 269 271 270 269 270 270 267 265 263 261 263 265 265 267 270 271 271 271 268 264 266 270 272 272 270 265 259 256 254 251 251 254 258 260 261 263 263 262 261 260 260 260 260 260 260 259 258 254 248 248 249 246 247 251 254
283 283 283 285 284 281 278 274 270 268 268 270 270 269 269 267 264 262 260 260 261 262 262 262 263 264 265 265 265 266 267 270 271 269 269 267 264 261 257 255 256 261 263 265 268 271 272 272 270 267 267 269 270 271 270 266 262 259 255 250 248 254 260 262 262 264 265 265 266 265 265 265 264 262 261 259 257 254 250 249 246 242 243 249 251
284 283 283 283 282 280 277 273 270 269 269 269 269 268 268 266 262 260 259 259 259 260 261 261 262 264 265 265 265 266 266 268 270 269 268 266 262 256 252 252 254 257 261 264 266 268 270 270 270 270 270 270 270 269 268 266 263 260 256 252 253 258 263 264 264 266 266 266 267 268 267 267 265 263 261 260 258 255 252 250 248 244 242 244 247
284 283 282 282 281 280 277 274 271 270 269 267 264 264 265 264 261 259 257 257 258 259 260 260 260 263 265 265 265 265 266 266 268 268 267 264 260 254 249 252 255 254 255 260 262 264 267 269 271 273 273 273 271 268 267 265 263 260 257 256 258 261 262 264 266 267 266 265 266 267 266 266 264 262 261 260 259 258 255 254 252 248 245 245 246
284 282 280 280 281 281 279 276 274 271 269 266 262 261 262 261 260 258 255 253 254 256 258 258 258 261 264 265 265 265 266 265 265 266 265 263 259 253 248 250 252 249 249 253 259 264 267 269 271 274 274 273 270 268 266 265 263 261 260 259 260 261 261 262 263 263 263 264 263 262 262 263 263 262 261 261 261 261 260 258 257 254 252 251 250
283 280 280 280 281 283 282 279 277 274 271 267 262 259 259 257 257 256 254 251 250 252 255 255 254 257 261 264 265 265 265 265 265 264 263 262 258 252 247 246 247 246 246 251 257 262 266 269 271 274 274 272 270 268 266 263 261 262 263 262 262 260 258 257 256 256 257 257 257 257 258 261 262 264 266 268 269 269 266 264 263 259 256 255 254
282 280 280 280 281 283 283 280 278 276 274 269 262 258 257 254 252 252 251 248 247 248 251 252 250 252 257 261 263 265 264 265 265 263 262 260 258 253 247 244 245 244 245 250 255 259 264 268 270 271 271 270 270 267 264 261 259 260 261 261 260 257 254 251 250 250 249 249 250 254 257 260 263 267 271 273 274 274 272 269 267 263 259 256 253
281 280 279 279 280 281 281 279 278 276 274 269 263 259 256 252 250 250 248 246 245 245 246 247 247 249 253 256 259 262 263 263 263 263 261 258 256 253 247 244 244 244 245 249 253 256 260 264 266 268 270 269 267 263 261 259 258 256 256 255 253 252 250 247 244 241 241 243 246 250 254 259 264 268 271 274 274 274 274 272 270 266 261 256 252
279 279 278 278 279 278 277 277 276 275 273 269 264 260 255 251 249 246 243 241 243 243 243 243 242 243 249 254 257 260 261 260 260 260 259 255 254 252 248 245 244 241 241 244 248 251 256 261 265 268 268 266 263 260 259 258 256 255 253 251 250 250 249 247 244 241 241 243 246 251 257 262 267 270 272 273 273 273 273 272 269 267 263 257 251
278 277 277 277 276 275 274 274 275 275 272 268 263 259 254 249 246 245 243 239 239 241 240 238 238 239 243 250 255 258 258 256 256 257 256 254 253 251 247 245 242 239 239 243 247 252 258 261 263 265 264 262 260 259 257 256 255 255 255 254 253 252 252 250 248 245 245 248 251 256 262 265 266 268 269 270 272 274 275 272 267 265 263 255 246
281 278 277 276 274 274 273 272 272 272 271 269 265 261 258 253 249 251 251 247 244 245 244 241 241 242 244 247 249 250 252 256 258 261 261 259 256 253 249 248 245 240 241 246 251 254 256 257 258 260 260 259 257 256 257 257 256 255 254 252 250 249 248 246 244 245 248 251 254 258 262 263 264 267 271 274 276 277 276 272 267 263 258 246 240
286 281 278 275 273 273 272 271 271 270 270 270 269 268 266 262 256 255 258 256 253 252 251 250 250 248 248 251 251 249 253 259 264 266 266 263 259 254 253 252 249 244 245 250 251 249 248 249 251 253 254 252 250 250 252 253 253 252 250 247 244 242 241 241 242 246 249 251 254 257 260 263 267 271 275 278 279 276 273 269 265 261 253 243 240
285 284 281 277 275 273 271 271 271 270 269 268 267 268 271 270 265 260 260 261 260 257 254 256 256 253 250 253 255 255 257 261 263 261 260 259 257 255 253 250 247 247 250 248 241 238 239 242 245 248 249 247 245 245 245 245 246 247 246 245 242 240 241 243 246 248 249 250 252 255 257 261 266 272 276 277 277 272 266 263 260 253 246 241 235
281 283 284 282 279 276 272 270 270 270 269 267 264 261 265 272 274 270 265 263 262 260 257 257 258 255 252 252 254 255 256 258 259 258 256 254 253 253 253 249 246 249 249 241 234 234 235 238 242 243 243 243 244 244 242 240 240 241 241 242 242 241 240 241 243 244 246 247 249 250 252 256 260 266 267 262 256 248 238 235 233 224 213 204 195
280 281 283 283 282 278 274 270 268 267 267 266 264 260 258 260 268 274 274 271 266 264 261 259 258 257 255 253 252 253 254 257 257 256 254 252 251 251 252 250 249 247 239 229 229 234 235 235 238 240 238 240 243 242 239 237 237 237 238 237 236 233 229 229 234 238 241 244 244 241 239 239 235 231 225 217 211 201 193 193 193 189 182 171 164
282 280 280 280 279 277 274 271 268 267 266 265 263 260 258 254 256 265 273 275 270 264 261 258 256 256 256 255 253 251 252 254 254 253 252 251 250 250 250 250 249 243 232 226 228 234 234 233 235 237 236 238 240 240 238 237 234 231 229 227 224 222 222 225 232 234 232 231 228 222 218 217 210 197 181 176 178 177 176 175 172 168 166 162 158
283 282 281 279 276 274 274 273 270 268 267 265 262 259 258 257 256 257 260 263 267 267 265 262 258 255 254 254 253 251 251 252 253 252 250 249 248 247 244 240 237 231 226 226 229 232 232 232 233 234 234 235 236 234 231 229 224 220 219 220 220 222 222 221 220 216 211 207 202 196 191 183 175 171 166 160 155 153 156 159 161 163 164 167 168
287 284 284 282 278 275 274 274 272 269 267 267 265 263 260 258 256 255 256 258 261 265 269 269 266 262 258 255 252 250 250 250 251 251 248 246 243 238 230 228 227 223 222 225 228 230 232 232 232 232 231 229 228 227 224 223 222 220 221 222 220 214 206 199 192 186 183 180 174 166 159 153 150 149 148 146 146 149 151 153 158 165 169 173 177
290 287 285 285 283 280 278 276 275 272 270 269 268 265 262 259 255 253 253 254 254 257 262 266 266 263 258 253 248 244 243 246 248 248 246 243 237 229 225 226 226 223 223 225 226 226 228 228 226 226 226 225 226 226 223 221 218 212 208 204 198 191 183 177 174 171 168 163 158 156 152 148 148 150 149 145 144 147 150 154 155 155 158 169 177
293 289 287 287 286 284 281 279 278 277 274 270 267 265 262 261 259 255 253 253 252 252 254 258 259 256 254 253 250 242 238 238 239 239 238 233 226 223 223 225 226 225 226 226 223 220 219 218 218 219 221 221 222 220 215 207 200 193 185 178 173 170 167 165 163 163 162 158 154 154 153 147 145 148 148 147 146 145 145 150 154 155 162 177 190
297 294 293 292 289 285 282 280 279 278 275 271 268 265 262 261 260 258 255 255 254 253 253 254 255 253 253 254 249 235 224 221 221 223 224 222 220 219 221 224 226 227 226 223 217 212 210 210 211 214 215 214 212 208 202 193 184 177 172 167 163 159 159 160 158 157 157 154 150 149 147 143 141 142 140 141 146 148 150 158 169 177 184 191 200
302 299 298 297 295 290 285 282 279 277 275 272 270 267 263 261 261 260 259 258 258 257 256 254 253 253 254 253 242 222 214 217 221 220 219 219 219 218 217 220 223 223 220 215 209 207 207 206 205 205 206 205 201 196 189 182 176 170 167 165 161 157 155 156 156 155 153 150 148 147 144 140 138 138 139 143 150 156 161 165 170 175 182 191 200
306 303 301 301 299 296 291 285 281 278 276 274 272 269 266 265 264 263 261 259 258 259 258 256 256 257 258 257 246 229 222 226 229 224 219 219 218 215 215 217 218 216 212 208 206 204 202 198 196 196 195 193 190 185 180 175 170 166 163 160 157 154 153 153 154 154 152 149 147 145 142 142 143 143 144 148 152 154 157 159 161 167 178 192 206
311 307 305 304 302 298 292 287 285 284 280 277 274 271 269 268 267 265 263 261 260 261 260 260 262 263 264 264 256 240 231 233 234 228 223 221 218 214 213 212 211 209 208 206 204 200 195 190 187 186 184 182 180 178 175 171 167 164 161 159 156 154 152 152 153 153 150 148 146 144 143 145 148 150 151 153 154 153 153 155 157 162 175 192 212
313 310 308 306 302 298 292 288 287 286 282 279 277 275 273 272 269 268 267 265 264 265 264 264 267 268 270 271 264 246 235 237 237 233 228 222 216 211 208 205 204 204 204 203 200 195 191 185 180 177 177 176 175 174 172 170 167 164 161 158 156 155 154 153 152 151 150 148 147 148 149 150 152 154 155 156 156 154 151 151 152 155 170 195 218
317 314 312 308 304 300 296 291 287 285 283 282 280 278 276 273 270 269 268 268 268 268 267 267 269 271 274 275 266 245 237 239 240 236 229 221 212 206 202 199 199 199 197 194 192 189 185 179 173 169 168 168 167 167 167 165 165 165 163 160 158 156 155 154 153 153 154 154 152 152 153 154 155 156 154 152 151 147 143 143 146 149 162 188 210
320 315 312 308 304 301 298 295 292 288 286 285 282 280 277 274 270 268 267 266 267 267 267 268 270 271 271 270 261 244 238 239 238 231 224 216 209 204 200 195 193 191 188 186 183 180 177 173 168 164 161 159 160 161 160 158 158 160 161 162 160 156 154 156 156 155 156 155 153 152 151 148 147 146 143 141 141 139 136 138 140 143 158 186 206
321 315 309 305 302 299 298 297 296 294 291 288 285 283 281 278 274 270 267 265 265 266 267 267 267 267 266 262 253 243 236 232 228 222 216 210 203 197 190 184 179 176 175 174 172 170 169 169 168 165 160 157 156 157 157 156 156 155 155 158 158 155 153 154 153 151 149 148 147 145 143 140 140 141 141 142 142 140 137 138 143 153 172 198 221
320 316 310 304 300 297 295 294 294 293 291 288 285 283 282 281 278 275 272 269 266 266 265 264 262 262 260 254 247 240 233 226 220 215 208 199 189 180 173 169 166 165 165 165 165 165 164 164 165 164 159 155 154 154 153 153 152 151 151 153 153 151 149 148 146 143 141 141 141 141 140 140 141 144 148 150 149 145 142 141 146 166 191 225 268
315 313 311 306 301 297 295 294 292 291 289 288 286 283 281 280 279 277 275 272 268 265 263 262 261 258 252 246 241 235 227 219 212 203 191 180 172 167 165 164 161 160 159 159 160 160 158 158 159 159 156 153 152 150 149 149 148 147 147 146 146 145 143 141 139 138 136 135 137 138 139 143 146 149 153 153 148 145 141 138 145 181 241 279 290
310 309 309 306 302 298 296 294 292 290 288 287 285 283 281 280 278 277 275 273 271 268 265 263 260 253 246 239 232 223 213 203 192 180 171 165 162 160 160 158 157 156 155 155 155 155 154 153 154 153 150 148 148 147 146 145 146 145 143 140 138 138 137 134 131 130 129 131 134 135 136 141 144 145 147 146 142 140 141 140 160 223 258 275 283
308 307 307 306 305 301 299 296 293 289 287 286 284 283 282 280 279 278 277 274 272 270 267 262 256 247 239 228 215 203 193 185 176 169 164 161 160 159 158 157 155 155 154 153 153 153 152 152 151 148 145 144 144 144 144 144 141 139 138 136 132 129 126 124 123 122 123 125 127 128 133 141 143 144 146 149 148 152 158 163 209 259 274 278 282
305 305 305 304 304 303 301 299 296 293 292 290 287 285 283 281 279 278 277 275 273 271 266 258 245 233 223 211 198 188 179 173 169 166 164 161 160 159 157 155 154 153 152 152 152 152 152 151 150 147 145 143 143 143 143 141 137 136 137 136 129 121 119 119 119 119 120 120 120 126 144 164 167 165 166 167 168 181 225 258 271 282 283 280 279